User: anonymous   Login
Location: Unspecified
(0.0000°N, 0.0000°E)
Time: 20:29:29
(UTC+02:00)
Language:

Gurwin Techsat 1B - Orbit

View from above orbital plane
View from above orbital plane
View from above satellite
View from above satellite

Ground track
Ground track

The orbit data is extracted from the following two-line orbital elements,

1 25397U 98043D   16237.52744215 -.00000007  00000-0  15920-4 0  9998
2 25397  98.5713 180.7114 0002159 115.7735 244.3667 14.23600528941589
Epoch (UTC): 24 August 2016 12:39:31
Eccentricity: 0.0002159
inclination: 98.5713°
perigee height: 811 km
apogee height: 815 km
right ascension of ascending node: 180.7114°
argument of perigee: 115.7735°
revolutions per day: 14.23600528
mean anomaly at epoch: 244.3667°
orbit number at epoch: 94158

The dashed part of the orbit path shows where the satellite is in the earth's shadow,  

DLR